User: anonymous   Login
Location: Unspecified
(0.0000°N, 0.0000°E)
Time: 02:49:52
(UTC+00:00)
Language:

ZACube-1 - Orbit

View from above orbital plane
View from above orbital plane
View from above satellite
View from above satellite

Ground track
Ground track

The orbit data is extracted from the following two-line orbital elements,

1 39417U 13066B   20185.71219689  .00000137  00000-0  23595-4 0  9998
2 39417  97.5646 182.8311 0057689 223.4928 136.1729 14.81286433357444
Epoch (UTC): 03 July 2020 17:05:33
Eccentricity: 0.0057689
inclination: 97.5646°
perigee height: 585 km
apogee height: 665 km
right ascension of ascending node: 182.8311°
argument of perigee: 223.4928°
revolutions per day: 14.81286433
mean anomaly at epoch: 136.1729°
orbit number at epoch: 35744

The dashed part of the orbit path shows where the satellite is in the earth's shadow,  

DLR